| time (UTC) | temp F | wind direction | speed MPH | gust MPH | rain 1hr in | rain 24hr in | rain mn in | humidity % | barometer mb |
| 20260507130024 | 49 | 35 | 2.0 | 7.0 | 0.03 | 0.70 | 0.56 | 89 | 1008.1 |
| 20260507124547 | 49 | 27 | 2.0 | 7.0 | 0.03 | 0.70 | 0.56 | 89 | 1008.2 |
| 20260507123036 | 49 | 8 | 4.0 | 11.0 | 0.03 | 0.70 | 0.56 | 90 | 1008.5 |
| 20260507121539 | 48 | 12 | 4.0 | 10.0 | 0.04 | 0.69 | 0.55 | 90 | 1008.8 |
| 20260507120049 | 48 | 26 | 4.0 | 10.0 | 0.04 | 0.67 | 0.53 | 90 | 1008.1 |
| 20260507114529 | 49 | 19 | 5.0 | 13.0 | 0.04 | 0.67 | 0.53 | 91 | 1008.3 |
| 20260507113108 | 49 | 6 | 5.0 | 15.0 | 0.05 | 0.67 | 0.53 | 91 | 1008.2 |
| 20260507111605 | 49 | 347 | 5.0 | 16.0 | 0.03 | 0.65 | 0.51 | 91 | 1008.9 |
| 20260507110025 | 49 | 16 | 5.0 | 13.0 | 0.01 | 0.63 | 0.49 | 91 | 1007.8 |
| 20260507104527 | 49 | 4 | 6.0 | 11.0 | 0.03 | 0.63 | 0.49 | 92 | 1007.3 |
| 20260507103116 | 49 | 17 | 8.0 | 15.0 | 0.05 | 0.62 | 0.48 | 93 | 1007.4 |
| 20260507101609 | 50 | 345 | 10.0 | 18.0 | 0.09 | 0.62 | 0.48 | 94 | 1007.1 |
| 20260507100107 | 51 | 331 | 8.0 | 16.0 | 0.14 | 0.62 | 0.48 | 95 | 1007.0 |
| 20260507094606 | 51 | 360 | 8.0 | 14.0 | 0.16 | 0.60 | 0.46 | 96 | 1006.6 |
| 20260507093105 | 51 | 343 | 6.0 | 14.0 | 0.17 | 0.56 | 0.43 | 96 | 1006.6 |
| 20260507091546 | 51 | 353 | 3.0 | 13.0 | 0.26 | 0.52 | 0.38 | 96 | 1006.9 |
| 20260507090019 | 53 | 3 | 7.0 | 14.0 | 0.32 | 0.48 | 0.34 | 96 | 1006.7 |
| 20260507084523 | 53 | 261 | 0.0 | 3.0 | 0.30 | 0.44 | 0.30 | 96 | 1006.5 |
| 20260507083009 | 53 | 258 | 3.0 | 8.0 | 0.25 | 0.39 | 0.25 | 96 | 1007.2 |
| 20260507081527 | 52 | 327 | 6.0 | 14.0 | 0.11 | 0.25 | 0.11 | 96 | 1006.8 |
| 20260507080023 | 52 | 277 | 5.0 | 12.0 | 0.01 | 0.15 | 0.01 | 96 | 1006.2 |
| 20260507074616 | 52 | 124 | 6.0 | 11.0 | 0.00 | 0.14 | 0.00 | 96 | 1005.9 |
| 20260507073102 | 52 | 124 | 5.0 | 9.0 | 0.00 | 0.14 | 0.00 | 96 | 1005.7 |
| 20260507071521 | 52 | 124 | 6.0 | 12.0 | 0.00 | 0.14 | 0.00 | 96 | 1005.9 |
| 20260507070121 | 52 | 124 | 6.0 | 13.0 | 0.00 | 0.14 | 0.00 | 96 | 1006.2 |
| 20260507064617 | 52 | 124 | 6.0 | 11.0 | 0.00 | 0.14 | 0.00 | 96 | 1006.2 |
| 20260507063026 | 52 | 124 | 3.0 | 9.0 | 0.00 | 0.14 | 0.00 | 96 | 1006.0 |
| 20260507061602 | 53 | 272 | 3.0 | 11.0 | 0.00 | 0.14 | 0.00 | 96 | 1006.2 |
| 20260507054533 | 53 | 282 | 4.0 | 12.0 | 0.00 | 0.14 | 0.00 | 96 | 1006.7 |
| 20260507053025 | 53 | 274 | 6.0 | 15.0 | 0.00 | 0.14 | 0.00 | 96 | 1007.0 |
| 20260507051604 | 52 | 284 | 8.0 | 19.0 | 0.00 | 0.14 | 0.00 | 96 | 1007.0 |
| 20260507050103 | 52 | 264 | 7.0 | 16.0 | 0.00 | 0.14 | 0.00 | 96 | 1007.2 |
| 20260507044600 | 52 | 124 | 10.0 | 23.0 | 0.00 | 0.14 | 0.00 | 96 | 1007.2 |
| 20260507043104 | 53 | 260 | 8.0 | 19.0 | 0.00 | 0.14 | 0.00 | 95 | 1007.1 |
| 20260507041540 | 53 | 274 | 9.0 | 19.0 | 0.00 | 0.14 | 0.00 | 95 | 1007.3 |
| 20260507040034 | 53 | 253 | 11.0 | 21.0 | 0.00 | 0.14 | 0.14 | 95 | 1007.5 |
| 20260507034551 | 53 | 273 | 12.0 | 21.0 | 0.00 | 0.14 | 0.14 | 95 | 1007.6 |
| 20260507033056 | 53 | 124 | 11.0 | 21.0 | 0.00 | 0.14 | 0.14 | 95 | 1007.6 |
| 20260507031618 | 53 | 266 | 11.0 | 20.0 | 0.00 | 0.14 | 0.14 | 95 | 1007.7 |
| 20260507030100 | 53 | 124 | 11.0 | 18.0 | 0.00 | 0.14 | 0.14 | 95 | 1007.5 |
| 20260507024602 | 53 | 273 | 8.0 | 17.0 | 0.00 | 0.14 | 0.14 | 95 | 1007.5 |
| 20260507023100 | 53 | 264 | 9.0 | 18.0 | 0.00 | 0.14 | 0.14 | 95 | 1007.7 |
| 20260507021553 | 54 | 250 | 8.0 | 15.0 | 0.00 | 0.14 | 0.14 | 95 | 1007.9 |
| 20260507020038 | 54 | 124 | 10.0 | 18.0 | 0.00 | 0.14 | 0.14 | 95 | 1008.1 |
| 20260507014605 | 54 | 249 | 7.0 | 18.0 | 0.00 | 0.14 | 0.14 | 95 | 1008.2 |
| 20260507013111 | 54 | 124 | 8.0 | 19.0 | 0.00 | 0.14 | 0.14 | 95 | 1008.4 |
| 20260507011520 | 54 | 255 | 10.0 | 18.0 | 0.01 | 0.14 | 0.14 | 94 | 1008.5 |
| 20260507010004 | 55 | 243 | 8.0 | 22.0 | 0.01 | 0.14 | 0.14 | 95 | 1008.3 |
| 20260507004509 | 55 | 124 | 13.0 | 20.0 | 0.01 | 0.14 | 0.14 | 94 | 1008.3 |
| 20260507003011 | 55 | 124 | 16.0 | 26.0 | 0.01 | 0.14 | 0.14 | 94 | 1008.1 |
| 20260507001504 | 55 | 254 | 13.0 | 24.0 | 0.03 | 0.13 | 0.13 | 94 | 1008.0 |
| 20260507000004 | 55 | 259 | 11.0 | 22.0 | 0.06 | 0.13 | 0.13 | 94 | 1008.0 |
| 20260506234502 | 55 | 210 | 12.0 | 25.0 | 0.09 | 0.13 | 0.13 | 94 | 1008.0 |
| 20260506233104 | 55 | 238 | 10.0 | 18.0 | 0.11 | 0.13 | 0.13 | 94 | 1008.1 |
| 20260506231549 | 55 | 232 | 12.0 | 22.0 | 0.09 | 0.10 | 0.10 | 93 | 1007.9 |
| 20260506230028 | 55 | 207 | 14.0 | 25.0 | 0.07 | 0.07 | 0.07 | 93 | 1008.2 |
| 20260506224530 | 55 | 185 | 12.0 | 23.0 | 0.04 | 0.04 | 0.04 | 93 | 1008.4 |
| 20260506223019 | 55 | 124 | 15.0 | 31.0 | 0.02 | 0.02 | 0.02 | 92 | 1008.5 |
| 20260506221604 | 55 | 232 | 15.0 | 24.0 | 0.01 | 0.01 | 0.01 | 91 | 1008.7 |
| 20260506220007 | 56 | 235 | 14.0 | 25.0 | 0.00 | 0.00 | 0.00 | 90 | 1008.6 |
| 20260506214603 | 56 | 238 | 16.0 | 29.0 | 0.00 | 0.00 | 0.00 | 90 | 1008.4 |
| 20260506213046 | 56 | 211 | 14.0 | 23.0 | 0.00 | 0.00 | 0.00 | 90 | 1008.6 |
| 20260506211611 | 56 | 246 | 14.0 | 27.0 | 0.00 | 0.00 | 0.00 | 90 | 1008.9 |
| 20260506210005 | 57 | 124 | 14.0 | 25.0 | 0.00 | 0.00 | 0.00 | 89 | 1009.0 |
| 20260506204602 | 56 | 231 | 11.0 | 23.0 | 0.00 | 0.00 | 0.00 | 89 | 1009.0 |
| 20260506203108 | 56 | 124 | 15.0 | 25.0 | 0.00 | 0.00 | 0.00 | 88 | 1009.0 |
| 20260506201527 | 57 | 239 | 13.0 | 29.0 | 0.00 | 0.00 | 0.00 | 87 | 1009.2 |
| 20260506200032 | 57 | 270 | 14.0 | 24.0 | 0.00 | 0.00 | 0.00 | 87 | 1009.2 |
| 20260506194546 | 57 | 247 | 12.0 | 25.0 | 0.00 | 0.00 | 0.00 | 87 | 1009.5 |
| 20260506193030 | 57 | 124 | 15.0 | 28.0 | 0.00 | 0.00 | 0.00 | 86 | 1009.6 |
| 20260506191535 | 57 | 124 | 12.0 | 22.0 | 0.00 | 0.00 | 0.00 | 86 | 1009.7 |
| 20260506190039 | 57 | 239 | 12.0 | 26.0 | 0.00 | 0.00 | 0.00 | 86 | 1009.9 |
| 20260506184612 | 58 | 124 | 15.0 | 26.0 | 0.00 | 0.00 | 0.00 | 85 | 1009.7 |
| 20260506183100 | 58 | 124 | 14.0 | 30.0 | 0.00 | 0.00 | 0.00 | 85 | 1010.2 |
| 20260506181505 | 58 | 241 | 14.0 | 24.0 | 0.00 | 0.00 | 0.00 | 85 | 1010.5 |
| 20260506180107 | 58 | 227 | 14.0 | 29.0 | 0.00 | 0.00 | 0.00 | 85 | 1010.7 |
| 20260506174502 | 58 | 268 | 13.0 | 26.0 | 0.00 | 0.00 | 0.00 | 84 | 1011.2 |
| 20260506173006 | 59 | 124 | 14.0 | 24.0 | 0.00 | 0.00 | 0.00 | 84 | 1011.1 |
| 20260506171519 | 59 | 124 | 14.0 | 28.0 | 0.00 | 0.00 | 0.00 | 84 | 1011.2 |
| 20260506170023 | 59 | 124 | 17.0 | 26.0 | 0.00 | 0.00 | 0.00 | 85 | 1011.3 |
| 20260506164537 | 58 | 234 | 15.0 | 28.0 | 0.00 | 0.00 | 0.00 | 85 | 1011.7 |
| 20260506163025 | 58 | 124 | 14.0 | 28.0 | 0.00 | 0.00 | 0.00 | 85 | 1011.7 |
| 20260506161617 | 58 | 124 | 12.0 | 20.0 | 0.00 | 0.00 | 0.00 | 85 | 1012.0 |
| 20260506160113 | 58 | 260 | 12.0 | 23.0 | 0.00 | 0.00 | 0.00 | 85 | 1012.3 |
| 20260506154550 | 58 | 124 | 11.0 | 23.0 | 0.00 | 0.00 | 0.00 | 85 | 1012.6 |
| 20260506153039 | 57 | 272 | 13.0 | 26.0 | 0.00 | 0.00 | 0.00 | 85 | 1012.7 |
| 20260506151554 | 58 | 239 | 12.0 | 23.0 | 0.00 | 0.00 | 0.00 | 85 | 1012.8 |
| 20260506150031 | 58 | 124 | 11.0 | 24.0 | 0.00 | 0.00 | 0.00 | 84 | 1012.7 |
| 20260506144518 | 58 | 250 | 12.0 | 21.0 | 0.00 | 0.00 | 0.00 | 85 | 1012.7 |
| 20260506143015 | 58 | 271 | 9.0 | 19.0 | 0.00 | 0.00 | 0.00 | 86 | 1012.6 |
| 20260506141613 | 57 | 239 | 8.0 | 19.0 | 0.00 | 0.00 | 0.00 | 85 | 1012.5 |
| 20260506140108 | 58 | 124 | 10.0 | 22.0 | 0.00 | 0.00 | 0.00 | 85 | 1012.6 |
| 20260506134600 | 58 | 124 | 12.0 | 22.0 | 0.00 | 0.00 | 0.00 | 85 | 1012.9 |
| 20260506133035 | 58 | 124 | 9.0 | 18.0 | 0.00 | 0.00 | 0.00 | 86 | 1012.9 |
| 20260506131534 | 57 | 124 | 10.0 | 19.0 | 0.00 | 0.00 | 0.00 | 86 | 1012.8 |